Overview Statistics Trail Chart Weather Telemetry Raw packets
 

This is the latest recevied weather packets stored in our database for station/object EA4URC-13. If no packets are shown the sender has not sent any weather packets the latest 10 day(s).

<< 30 31 32 33 34 35 36 >>
Time Temp. Humidity Pressure Rain* Wind** Luminosity Snow
1787943761 23.33° C 18% 1023.2 hPa - - - -
1787942861 24.44° C 16% 1023.7 hPa - - - -
1787941962 25° C 16% 1023.8 hPa - - - -
1787941062 26.11° C 16% 1023.8 hPa - - - -
1787940162 26.11° C 15% 1023.8 hPa - - - -
1787939262 26.11° C 15% 1023.8 hPa - - - -
1787938362 26.67° C 14% 1023.9 hPa - - - -
1787937462 27.22° C 15% 1023.9 hPa - - - -
1787936561 27.22° C 14% 1023.9 hPa - - - -
1787935661 27.22° C 14% 1023.9 hPa - - - -
1787934762 27.78° C 13% 1023.8 hPa - - - -
1787933861 27.22° C 14% 1023.2 hPa - - - -
1787932961 27.22° C 13% 1023.8 hPa - - - -
1787932061 27.78° C 14% 1023.9 hPa - - - -
1787931161 27.22° C 14% 1023.8 hPa - - - -
1787930261 27.78° C 14% 1024 hPa - - - -
1787929361 27.22° C 14% 1024.2 hPa - - - -
1787928461 27.78° C 15% 1024.1 hPa - - - -
1787927561 28.33° C 15% 1024.2 hPa - - - -
1787926661 27.78° C 15% 1024.2 hPa - - - -
1787925760 27.78° C 16% 1024.2 hPa - - - -
1787924862 27.78° C 17% 1024.2 hPa - - - -
1787923960 27.22° C 17% 1024.4 hPa - - - -
1787923060 27.78° C 17% 1024.3 hPa - - - -
1787922160 26.67° C 18% 1024.6 hPa - - - -

* Rain since midnight (hover to see other rain measurements)
** Current wind speed in m/s (hover to see current wind gust speed)